{"data":{"norad_id":59271,"intl_designator":"2024-050T","name":"STARLINK-31630","alt_names":[],"object_type":"PAYLOAD","status":"ACTIVE","operator":null,"country":"US","launch_date":"2024-03-19","launch_site_code":"AFWTR","launch_vehicle":null,"mission":null,"orbit_class":"UNKNOWN","rcs_meters":null,"size_class":null,"mass_kg":null,"dimensions":null,"purposes":["comms"],"wikipedia_slug":null,"has_3d_model":false,"image_url":null,"decayed_at":null,"tle_current":{"epoch":"2026-05-25T04:14:54.153024Z","epoch_age_seconds":73905,"freshness":"FRESH","line1":"1 59271U 24050T   26145.17701566  .00025471  00000+0  78617-3 0  9996","line2":"2 59271  53.1597 172.6035 0000922  82.6520 277.4587 15.33426691122449","mean_motion":15.33426691,"eccentricity":9.22e-5,"inclination_deg":53.1597,"raan_deg":172.6035,"arg_perigee_deg":82.652,"mean_anomaly_deg":277.4587,"bstar":0.00078617,"rev_number":12244,"period_min":93.907325889895,"perigee_km":464.96665738797,"apogee_km":466.22864205738,"semimajor_km":6843.7346497227,"source":"CELESTRAK","updated_at":"2026-05-25T13:38:18.894867Z"}}}